Location: Unspecified
(49.2170°N, 0.0000°E)
Time: 14:13:08
(UTC+00:00)

Vanguard 3 - Pass Details

Date: 24 January 2021
Orbit: 508 x 3261 km, 33.3° (Epoch: 28 February)

Event Time Altitude Azimuth Distance (km) Brightness Sun altitude
Rises 10:42:21 0° 263° (W) 5,864 11.4 18.8°
Reaches altitude 10° 10:50:09 10° 237° (WSW) 5,479 11.6 19.3°
Maximum altitude 10:55:07 12° 219° (SW) 5,608 12.0 19.6°
Drops below altitude 10° 11:00:31 10° 202° (SSW) 6,013 12.5 19.9°
Sets 11:10:42 0° 177° (S) 7,217 13.4 20.3°
